Location: Pasarilla del Rebollar
(40.6790°N, 5.0062°W)
Time: 10:58:58
(UTC+00:00)

Cosmos 2297 Rocket - Pass Details

Date: 22 April 2026
Orbit: 839 x 841 km, 71.0° (Epoch: 20 May)

Event Time Altitude Azimuth Distance (km) Brightness Sun altitude
Exits shadow 03:47:22 - 171° (S) 3,147 4.9 -18.5°
Reaches altitude 10° 03:49:25 10° 162° (SSE) 2,446 4.4 -18.2°
Maximum altitude 03:54:13 30° 103° (ESE) 1,473 3.9 -17.4°
Drops below altitude 10° 03:59:01 10° 44° (NE) 2,460 5.9 -16.6°
Sets 04:01:44 0° 34° (NE) 3,399 6.6 -16.2°
